FW5436 Weather Reports


Display with metric or nautical units.
time (UTC)temp
F
wind
direction
speed
MPH
gust
MPH
rain 1hr
in
rain 24hr
in
rain mn
in
humidity
%
barometer
mb
20260510214632 53 68 2.0 8.0 0.00 0.00 0.04 74 1015.9
20260510213610 53 338 3.0 8.0 0.00 0.00 0.04 72 1016.0
20260510213100 53 315 3.0 9.0 0.00 0.00 0.04 72 1015.9
20260510212040 53 23 2.0 7.0 0.00 0.00 0.04 71 1016.0
20260510211530 53 68 2.0 7.0 0.00 0.00 0.04 70 1015.8
20260510210510 54 158 3.0 7.0 0.00 0.00 0.04 69 1015.5
20260510205451 55 0 2.0 6.0 0.00 0.00 0.04 68 1015.5
20260510204430 55 23 2.0 7.0 0.00 0.00 0.04 67 1015.4
20260510203919 55 23 1.0 7.0 0.00 0.00 0.04 67 1015.5
20260510203409 55 90 2.0 7.0 0.00 0.00 0.04 66 1015.3
20260510202859 56 0 3.0 4.0 0.00 0.00 0.04 65 1015.2
20260510202353 56 338 1.0 4.0 0.00 0.00 0.04 65 1015.0
20260510200818 57 113 2.0 6.0 0.00 0.00 0.04 61 1015.1
20260510195758 57 0 2.0 8.0 0.00 0.00 0.04 62 1015.0
20260510195248 57 68 2.0 6.0 0.00 0.00 0.04 61 1015.0
20260510194737 57 90 2.0 6.0 0.00 0.00 0.04 60 1015.0
20260510194227 57 45 2.0 6.0 0.00 0.00 0.04 60 1014.9
20260510193718 58 315 1.0 6.0 0.00 0.00 0.04 59 1014.9
20260510193208 57 45 2.0 6.0 0.00 0.00 0.04 58 1014.8
20260510192657 58 68 2.0 11.0 0.00 0.00 0.04 57 1014.8
20260510191636 59 45 3.0 9.0 0.00 0.00 0.04 54 1014.7
20260510191126 58 45 3.0 11.0 0.00 0.00 0.04 55 1014.5
20260510190616 59 90 3.0 11.0 0.00 0.00 0.04 54 1015.0
20260510190106 60 248 2.0 11.0 0.00 0.00 0.04 51 1014.8
20260510185555 60 68 3.0 9.0 0.00 0.00 0.04 52 1014.8
20260510185047 60 23 2.0 9.0 0.00 0.00 0.04 52 1014.7
20260510184026 58 23 2.0 9.0 0.00 0.00 0.04 55 1014.7
20260510183516 58 68 3.0 8.0 0.00 0.00 0.04 54 1014.5
20260510183005 59 45 2.0 7.0 0.00 0.00 0.04 52 1014.5
20260510182455 60 225 4.0 9.0 0.00 0.00 0.04 51 1014.5
20260510181946 60 45 4.0 9.0 0.00 0.00 0.04 51 1014.2
20260510180924 59 23 3.0 11.0 0.00 0.00 0.04 51 1014.2
20260510180414 60 135 4.0 11.0 0.00 0.00 0.04 51 1014.1
20260510175904 60 23 2.0 11.0 0.00 0.00 0.04 51 1014.0
20260510175355 59 45 4.0 11.0 0.00 0.00 0.04 50 1014.1
20260510174844 59 90 4.0 11.0 0.00 0.00 0.04 50 1014.2
20260510174334 59 45 4.0 11.0 0.00 0.00 0.04 50 1014.3
20260510173825 59 23 4.0 11.0 0.00 0.00 0.04 50 1014.3
20260510172254 58 45 2.0 14.0 0.00 0.00 0.04 51 1014.0
20260510171743 57 45 5.0 14.0 0.00 0.00 0.04 51 1014.1
20260510171233 58 23 4.0 11.0 0.00 0.00 0.04 51 1014.3
20260510170213 58 90 3.0 11.0 0.00 0.00 0.04 51 1014.4
20260510165702 58 203 4.0 8.0 0.00 0.00 0.04 49 1014.2
20260510165152 58 45 3.0 8.0 0.00 0.00 0.04 50 1014.3
20260510164643 58 0 3.0 14.0 0.00 0.00 0.04 53 1014.3
20260510163112 57 158 4.0 13.0 0.00 0.00 0.04 54 1014.6
20260510162602 56 158 4.0 11.0 0.00 0.00 0.04 54 1014.6
20260510162051 56 225 4.0 13.0 0.00 0.00 0.04 56 1014.7
20260510161542 57 68 5.0 13.0 0.00 0.00 0.04 55 1014.7
20260510160521 56 248 4.0 15.0 0.00 0.00 0.04 56 1014.9
20260510160011 55 315 4.0 15.0 0.00 0.00 0.04 55 1015.1
20260510155501 55 158 6.0 15.0 0.00 0.00 0.04 55 1015.3
20260510154951 55 293 4.0 15.0 0.00 0.00 0.04 56 1015.3
20260510153931 54 45 4.0 13.0 0.00 0.00 0.04 57 1015.2
20260510152910 54 113 4.0 13.0 0.00 0.00 0.04 59 1015.5
20260510152400 54 23 4.0 13.0 0.00 0.00 0.04 59 1015.5
20260510151850 54 248 6.0 11.0 0.00 0.00 0.04 60 1015.5
20260510151340 54 45 4.0 11.0 0.00 0.00 0.04 60 1015.5
20260510150829 54 45 4.0 20.0 0.00 0.00 0.04 60 1015.6
20260510150319 54 315 4.0 20.0 0.00 0.00 0.04 60 1015.3
20260510145809 53 90 4.0 9.0 0.00 0.00 0.04 60 1015.6
20260510145259 52 0 4.0 9.0 0.00 0.00 0.04 66 1015.7
20260510144749 51 68 4.0 13.0 0.00 0.00 0.04 67 1015.6
20260510144238 51 113 4.0 13.0 0.00 0.00 0.04 67 1015.6
20260510143219 51 23 2.0 13.0 0.00 0.00 0.04 68 1015.7
20260510142709 51 90 2.0 13.0 0.00 0.00 0.04 67 1015.6
20260510141649 51 23 5.0 11.0 0.00 0.00 0.04 66 1015.6
20260510141138 52 180 3.0 11.0 0.00 0.00 0.04 67 1015.8
20260510140627 52 0 5.0 13.0 0.00 0.00 0.04 65 1015.8
20260510140117 51 45 6.0 14.0 0.00 0.00 0.04 68 1015.6
20260510135607 50 180 5.0 14.0 0.00 0.00 0.04 69 1015.7
20260510135057 50 45 4.0 14.0 0.00 0.00 0.04 69 1015.9
20260510134547 50 45 4.0 11.0 0.00 0.00 0.04 71 1015.7
20260510134037 49 90 4.0 11.0 0.00 0.00 0.04 70 1015.7
20260510133527 50 45 6.0 11.0 0.00 0.00 0.04 70 1015.9
20260510133016 49 45 4.0 14.0 0.00 0.00 0.04 71 1015.8
20260510132508 49 90 5.0 14.0 0.00 0.00 0.04 72 1015.7
20260510130936 48 113 5.0 13.0 0.00 0.00 0.04 74 1015.7
20260510130427 48 90 4.0 11.0 0.00 0.00 0.04 75 1015.9
20260510125919 48 45 4.0 13.0 0.00 0.00 0.04 74 1015.5
20260510125406 47 293 3.0 13.0 0.00 0.00 0.04 75 1015.8
20260510122306 46 68 4.0 13.0 0.00 0.00 0.04 80 1015.9
20260510121245 45 90 4.0 9.0 0.00 0.00 0.04 82 1015.8
20260510120735 44 23 2.0 11.0 0.00 0.00 0.04 83 1015.9
20260510120226 44 90 4.0 11.0 0.00 0.00 0.04 84 1015.9
20260510115716 44 135 3.0 11.0 0.00 0.00 0.04 84 1016.0
20260510115204 44 45 3.0 11.0 0.00 0.00 0.04 84 1016.0
20260510114654 44 45 2.0 11.0 0.00 0.00 0.04 84 1016.0
20260510114143 44 68 3.0 11.0 0.00 0.00 0.04 85 1015.8
20260510113123 44 90 4.0 9.0 0.00 0.00 0.04 85 1015.6
20260510112614 44 45 2.0 8.0 0.00 0.00 0.04 85 1015.7
20260510112104 44 90 4.0 9.0 0.00 0.00 0.04 85 1015.6
20260510111554 44 68 3.0 11.0 0.00 0.00 0.04 84 1015.6
20260510111042 44 68 4.0 11.0 0.00 0.00 0.04 84 1015.4
20260510105513 44 90 4.0 11.0 0.00 0.00 0.04 84 1015.6
20260510105003 44 90 5.0 11.0 0.00 0.00 0.04 84 1015.7
20260510104452 44 68 5.0 8.0 0.00 0.00 0.04 84 1015.8
20260510103436 44 68 2.0 11.0 0.00 0.00 0.04 84 1015.8
20260510102921 44 45 3.0 7.0 0.00 0.00 0.04 84 1015.7
20260510102411 44 68 3.0 8.0 0.00 0.00 0.04 84 1015.6
20260510100841 44 90 4.0 11.0 0.00 0.00 0.04 85 1015.6
20260510100331 44 90 2.0 11.0 0.00 0.00 0.04 86 1015.6
20260510095821 44 45 3.0 11.0 0.00 0.00 0.04 86 1015.6
20260510095310 44 45 4.0 11.0 0.00 0.00 0.04 87 1015.4
20260510093740 44 315 4.0 11.0 0.00 0.00 0.04 88 1015.4
20260510093230 44 45 4.0 8.0 0.00 0.00 0.04 88 1015.6
20260510092720 44 45 2.0 8.0 0.00 0.00 0.04 89 1015.5
20260510092210 44 68 2.0 8.0 0.00 0.00 0.04 89 1015.3
20260510090640 44 45 3.0 7.0 0.00 0.00 0.04 88 1015.2
20260510090129 44 90 2.0 11.0 0.00 0.00 0.04 88 1015.0
20260510085619 44 315 2.0 11.0 0.00 0.00 0.04 88 1014.8
20260510085108 44 113 3.0 7.0 0.00 0.00 0.04 89 1014.8
20260510084600 44 68 2.0 8.0 0.00 0.00 0.04 89 1014.7
20260510083553 44 0 3.0 11.0 0.00 0.00 0.04 89 1015.1
20260510083028 44 45 3.0 8.0 0.00 0.00 0.04 89 1015.0
20260510082518 44 45 3.0 8.0 0.00 0.00 0.04 89 1015.0
20260510082008 44 23 3.0 9.0 0.00 0.00 0.04 90 1015.3
20260510081459 44 68 2.0 9.0 0.00 0.00 0.04 89 1015.1
20260510080948 44 0 3.0 9.0 0.00 0.00 0.04 89 1015.1
20260510080438 45 0 3.0 9.0 0.00 0.00 0.04 89 1014.9
20260510075927 45 23 2.0 11.0 0.00 0.00 0.04 89 1015.0
20260510075418 45 0 2.0 11.0 0.00 0.00 0.04 89 1014.9
20260510074907 45 23 4.0 9.0 0.00 0.00 0.04 89 1015.0
20260510074357 46 68 4.0 11.0 0.00 0.00 0.04 89 1015.0
20260510073847 46 23 4.0 11.0 0.00 0.00 0.04 89 1015.0
20260510073336 46 68 4.0 8.0 0.00 0.00 0.04 89 1015.0
20260510072827 46 90 3.0 8.0 0.00 0.00 0.04 89 1014.9
20260510072317 46 135 4.0 9.0 0.00 0.00 0.04 88 1014.9
20260510071806 46 45 2.0 9.0 0.00 0.00 0.04 88 1015.0
20260510070235 47 338 4.0 9.0 0.00 0.00 0.04 88 1015.0
20260510065726 46 23 4.0 9.0 0.00 0.00 0.04 88 1015.0
20260510065215 46 0 5.0 9.0 0.00 0.00 0.04 89 1014.8
20260510064706 46 0 3.0 11.0 0.00 0.00 0.04 90 1014.8
20260510063645 46 45 3.0 8.0 0.00 0.00 0.04 91 1014.8
20260510063134 46 45 2.0 9.0 0.00 0.00 0.04 91 1014.6
20260510062625 46 45 2.0 9.0 0.00 0.00 0.04 91 1014.7
20260510062115 46 23 3.0 13.0 0.00 0.00 0.04 91 1014.7
20260510061605 46 45 2.0 13.0 0.00 0.00 0.04 91 1014.7
20260510061055 46 45 4.0 13.0 0.00 0.00 0.04 91 1014.7
20260510055524 46 68 2.0 11.0 0.00 0.00 0.04 91 1014.9
20260510055014 46 45 5.0 13.0 0.00 0.00 0.04 91 1015.0
20260510054504 46 338 2.0 13.0 0.00 0.00 0.04 92 1015.0
20260510053953 46 0 6.0 13.0 0.00 0.00 0.04 92 1015.0
20260510053453 46 68 4.0 7.0 0.00 0.00 0.04 93 1015.2
20260510052845 46 68 3.0 9.0 0.00 0.02 0.04 93 1015.3
20260510052335 46 68 3.0 11.0 0.00 0.02 0.04 94 1015.5
20260510051825 46 338 4.0 11.0 0.01 0.02 0.04 94 1015.2
20260510051315 47 68 3.0 11.0 0.01 0.02 0.04 94 1015.1
20260510050804 47 338 3.0 9.0 0.01 0.02 0.04 94 1015.1
20260510045744 47 90 2.0 13.0 0.01 0.02 0.04 94 1015.2
20260510045234 47 68 4.0 13.0 0.02 0.02 0.04 94 1015.0
20260510044724 47 135 2.0 11.0 0.02 0.02 0.04 94 1015.2
20260510044213 47 23 3.0 8.0 0.02 0.02 0.04 94 1015.3
20260510043153 47 68 2.0 11.0 0.02 0.02 0.04 94 1015.0
20260510042642 47 135 3.0 11.0 0.02 0.02 0.04 94 1015.2
20260510042133 47 248 4.0 11.0 0.01 0.01 0.02 94 1015.0
20260510041638 47 68 4.0 11.0 0.01 0.01 0.02 94 1015.0
20260510041112 47 135 4.0 9.0 0.01 0.01 0.02 94 1015.0
20260510040602 47 45 3.0 9.0 0.01 0.01 0.02 94 1014.8
20260510040049 47 45 1.0 9.0 0.01 0.01 0.02 94 1015.0
20260510035542 47 68 2.0 9.0 0.01 0.01 0.02 94 1014.7
20260510035032 47 68 3.0 11.0 0.00 0.00 0.01 94 1015.1
20260510034521 47 315 3.0 11.0 0.00 0.00 0.01 93 1015.2
20260510034011 47 68 4.0 11.0 0.00 0.00 0.01 93 1014.8
20260510033501 47 45 4.0 11.0 0.00 0.00 0.01 93 1014.9
20260510031824 47 45 3.0 11.0 0.01 0.01 0.01 92 1014.9
20260510031313 47 90 3.0 9.0 0.00 0.00 0.00 92 1014.9
20260510030807 47 68 3.0 6.0 0.00 0.00 0.00 91 1015.0
20260510030252 47 90 3.0 9.0 0.00 0.00 0.00 91 1014.9
20260510025741 47 68 3.0 9.0 0.00 0.00 0.06 90 1014.9
20260510025231 47 113 2.0 7.0 0.00 0.00 0.06 90 1015.1
20260510024722 47 68 3.0 11.0 0.00 0.00 0.06 90 1015.0
20260510024211 47 45 4.0 11.0 0.00 0.00 0.06 90 1014.9
20260510023701 47 68 3.0 11.0 0.00 0.00 0.06 90 1014.8
20260510023151 47 23 4.0 11.0 0.00 0.00 0.06 90 1014.8
20260510022641 47 23 3.0 9.0 0.00 0.00 0.06 90 1014.8
20260510021620 46 68 4.0 11.0 0.00 0.00 0.06 90 1014.9
20260510021111 46 68 3.0 11.0 0.00 0.00 0.06 90 1014.7
20260510020604 46 68 4.0 8.0 0.00 0.00 0.06 90 1014.6
20260510020050 46 23 3.0 8.0 0.00 0.00 0.06 89 1014.5
20260510015540 46 45 2.0 8.0 0.00 0.00 0.06 89 1014.6
20260510015030 46 338 2.0 9.0 0.00 0.00 0.06 89 1014.5
20260510014520 46 45 3.0 9.0 0.00 0.00 0.06 89 1014.5
20260510014015 46 68 2.0 11.0 0.00 0.00 0.06 89 1014.4
20260510013500 46 45 3.0 11.0 0.00 0.00 0.06 88 1014.5
20260510012949 46 248 3.0 7.0 0.00 0.00 0.06 88 1014.4
20260510012439 46 45 2.0 9.0 0.00 0.00 0.06 88 1014.3
20260510011929 46 45 2.0 9.0 0.00 0.00 0.06 88 1014.3
20260510011418 46 23 3.0 8.0 0.00 0.00 0.06 88 1014.4
20260510010909 46 68 3.0 8.0 0.00 0.00 0.06 88 1014.4
20260510005849 46 68 2.0 9.0 0.00 0.00 0.06 87 1014.3
20260510005338 46 23 2.0 7.0 0.00 0.00 0.06 86 1014.5
20260510004828 46 45 2.0 7.0 0.00 0.00 0.06 86 1014.5
20260510003807 47 0 2.0 8.0 0.00 0.00 0.06 85 1014.4
20260510003257 46 68 3.0 8.0 0.00 0.00 0.06 86 1014.3
20260510002748 46 90 2.0 6.0 0.00 0.00 0.06 86 1014.3
20260510002238 46 45 2.0 7.0 0.00 0.00 0.06 86 1014.1
20260510001727 46 23 2.0 8.0 0.00 0.00 0.06 86 1014.0
20260510000707 46 68 2.0 8.0 0.00 0.00 0.06 86 1014.1
20260510000157 46 90 2.0 7.0 0.00 0.00 0.06 87 1014.1
20260509235646 45 0 3.0 6.0 0.00 0.00 0.06 87 1014.2
20260509235136 45 45 2.0 6.0 0.00 0.00 0.06 86 1014.1
20260509234628 45 23 2.0 4.0 0.00 0.00 0.06 86 1013.9
20260509232411 46 45 2.0 6.0 0.00 0.00 0.06 85 1013.9
20260509231906 46 45 3.0 6.0 0.00 0.00 0.06 84 1013.9
20260509231352 46 315 2.0 7.0 0.00 0.00 0.06 84 1014.1
20260509230332 46 45 2.0 6.0 0.00 0.00 0.06 83 1014.0
20260509225822 46 23 2.0 8.0 0.00 0.00 0.06 82 1013.8
20260509224801 46 45 2.0 4.0 0.00 0.00 0.06 81 1013.9
20260509224252 46 23 2.0 4.0 0.00 0.00 0.06 80 1014.0
20260509223740 46 45 1.0 8.0 0.00 0.00 0.06 79 1013.9
20260509223230 47 270 3.0 8.0 0.00 0.00 0.06 79 1013.9
20260509222720 47 90 2.0 6.0 0.00 0.00 0.06 78 1013.8
20260509222211 47 23 2.0 8.0 0.00 0.00 0.06 78 1013.8
20260509221700 47 90 2.0 8.0 0.00 0.00 0.06 78 1013.8
20260509221150 47 68 2.0 6.0 0.00 0.00 0.06 77 1013.7
20260509220640 47 68 1.0 6.0 0.00 0.00 0.06 77 1013.6
20260509220129 47 315 1.0 6.0 0.00 0.00 0.06 77 1013.5
20260509215619 47 90 2.0 6.0 0.00 0.00 0.06 77 1013.5
20260509215115 47 68 2.0 4.0 0.00 0.00 0.06 77 1013.3